Sign in

Goboko Update

Goboko is set to continue

The Goboko booking system is to continue under a new operator, a member of one of our longest-subscribed flying clubs

The new and previous operators of the site are working to ensure there will be no interruption to your booking service as the transition takes place. Of course, aircraft booking will continue to be free

Thank you for your continued commitment to Goboko

Info

Aviation weather

METAR KDAB 230853Z 21004KT 9SM CLR 24/24 A2995 RMK AO2 SLP141 T02390239 56007

TAF KDAB 230549Z 2306/2406 22003KT P6SM FEW120 SCT250 FM231500 28007KT P6SM SCT030 FM232000 07008KT P6SM VCTS SCT035CB BKN060 TEMPO 2320/2322 2SM +TSRA BKN030CB FM240200 20004KT P6SM SCT035 BKN080 BKN250

Aviation weather from ADDS. Re-check weather before flight.

-